Hourly Data Report for October 28, 2014

All times are specified in Local Standard Time (LST). Add 1 hour to adjust for Daylight Saving Time where and when it is observed.

PANGNIRTUNG
NUNAVUT

66°08'36.300" N
65°42'40.500" W
22.60 m
2403049
71826
WXP

Download Data

Hourly Data (October 2014)
Hourly Data Report for October 28, 2014
Temp Definition
°C
Dew Point Temp Definition
°C
Rel Hum Definition
%
Wind Dir Definition
10's deg

Wind Spd Definition
km/h
Visibility Definition
km
Stn Press Definition
kPa
Hmdx Definition


Wind Chill Definition


Weather Definition


TIME
00:00 -4.3 -8.2 74 10 26   101.42   -12 LegendNANA
01:00 -4.2 -8.2 74 10 27   101.38   -12 LegendNANA
02:00 -4.2 -8.0 75 10 27   101.34   -12 LegendNANA
03:00 -4.1 -8.0 74 10 29   101.32   -12 LegendNANA
04:00 -4.1 -7.7 76 10 27   101.28   -11 LegendNANA
05:00 -4.0 -7.5 76 13 26   101.25   -11 LegendNANA
06:00 -3.9 -7.4 77 13 26   101.22   -11 LegendNANA
07:00 -3.8 -7.2 77 13 26   101.19   -11 LegendNANA
08:00 -3.5 -7.0 77 7 24   101.17   -10 LegendNANA
09:00 -3.4 -6.4 80 8 25   101.13   -10 LegendNANA
10:00 -3.4 -6.2 81 11 30   101.10   -11 LegendNANA
11:00 -3.1 -6.2 79 10 22   101.06   -9 LegendNANA
12:00 -3.2 -6.2 80 11 22   101.00   -10 LegendNANA
13:00 -3.1 -6.4 78 9 26   100.97   -10 LegendNANA
14:00 -2.6 -6.4 75 11 10   100.97   -6 LegendNANA
15:00 -2.9 -6.4 77 9 16   100.96   -8 LegendNANA
16:00 -3.7 -5.0 91 9 10   100.94   -8 LegendNANA
17:00 -3.4 -4.8 90 6 7   100.90   -6 LegendNANA
18:00 -3.4 -4.6 91 8 6   100.87   -6 LegendNANA
19:00 -3.5 -4.7 91 8 7   100.82   -6 LegendNANA
20:00 -3.1 -4.5 90 8 9   100.80   -7 LegendNANA
21:00 -2.7 -4.8 85 8 5   100.75   -5 LegendNANA
22:00 -1.9 -5.6 76 9 21   100.69   -8 LegendNANA
23:00 -1.9 -5.3 78 9 22   100.65   -8 LegendNANA

Notes on Data Quality.

Legend

  • E = Estimated
  • M = Missing
  • NA = Not Available
  • ‡ = Partner data that is not subject to review by the National Climate Archives
Date modified: